Kenosha, WI

4:56 PM CST on February 13, 2016 (GMT -0600)
Kenosha Regional

Weather History for KENW - November, 2012

Change the Weather History Date:

Friday, November 30, 2012

  Actual Average (KUGN) Record (KUGN)
Temperature  
Mean Temperature 40 °F -  
Max Temperature 46 °F 39 °F 55 °F (2003)
Min Temperature 33 °F 25 °F 15 °F (2002)
Degree Days  
Heating Degree Days 26 33  
Month to date heating degree days 780  
Since 1 July heating degree days 1385  
Cooling Degree Days 0 0  
Month to date cooling degree days 0  
Year to date cooling degree days 564  
Moisture  
Dew Point 35 °F    
Average Humidity 80    
Maximum Humidity 100    
Minimum Humidity 68    
Precipitation  
Precipitation 0.00 in 0.08 in 0.43 in (2001)
Month to date precipitation 2.76  
Year to date precipitation 33.59  
Sea Level Pressure  
Sea Level Pressure 30.13 in    
Wind  
Wind Speed 6 mph (ENE)    
Max Wind Speed 17 mph    
Max Gust Speed -    
Visibility 4 miles    
Events Fog    
T = Trace of Precipitation, MM = Missing Value Source: NWS Daily Summary

Daily Weather History Graph

Daily Weather History Graph

Search for Another Location

Airport or City:

Trip Planner

Search our weather history database for the weather conditions in past years. The results will help you decide how hot, cold, wet, or windy it might be!

Date:

Astronomy

Nov. 30, 2012 Rise Set
Actual Time 7:01 AM CST 4:19 PM CST
Civil Twilight 6:29 AM CST 4:51 PM CST
Nautical Twilight 5:54 AM CST 5:26 PM CST
Astronomical Twilight 5:20 AM CST 5:59 PM CST
Moon 6:14 PM CST (11/30) 8:33 AM CST (11/30)
Length of Visible Light 10h 21m
Length of Day
9h 18m
Waning Gibbous, 96% of the Moon is Illuminated
Nov 30
Waning Gibbous
Dec 6
Last Quarter
Dec 13
New
Dec 19
First Quarter
Dec 28
Full

Hourly Weather History & Observations

Time (CST) Temp. Windchill Dew Point Humidity Pressure Visibility Wind Dir Wind Speed Gust Speed Precip Events Conditions
12:53 AM 42.1 °F 39.2 °F 33.1 °F 70% 30.09 in 10.0 mi East 4.6 mph - N/A   Overcast
1:53 AM 43.0 °F 41.3 °F 34.0 °F 71% 30.09 in 9.0 mi ESE 3.5 mph - N/A   Overcast
2:53 AM 43.0 °F - 34.0 °F 71% 30.09 in 9.0 mi Calm Calm - N/A   Overcast
3:53 AM 42.1 °F - 34.0 °F 73% 30.08 in 8.0 mi Calm Calm - N/A   Overcast
4:53 AM 41.0 °F 39.0 °F 34.0 °F 76% 30.08 in 8.0 mi ENE 3.5 mph - N/A   Overcast
5:53 AM 39.9 °F 37.8 °F 34.0 °F 79% 30.08 in 7.0 mi ENE 3.5 mph - N/A   Overcast
6:53 AM 41.0 °F - 34.0 °F 76% 30.09 in 3.0 mi Calm Calm - N/A   Haze
7:53 AM 42.1 °F 40.2 °F 35.1 °F 76% 30.10 in 5.0 mi NNE 3.5 mph - N/A   Haze
8:53 AM 45.0 °F 41.8 °F 37.0 °F 74% 30.11 in 5.0 mi NE 5.8 mph - N/A   Haze
9:53 AM 46.9 °F - 37.0 °F 68% 30.12 in 7.0 mi ENE 11.5 mph - N/A   Clear
10:53 AM 46.0 °F 39.3 °F 37.9 °F 73% 30.12 in 5.0 mi ENE 16.1 mph - N/A   Haze
11:53 AM 46.0 °F 39.0 °F 37.9 °F 73% 30.12 in 4.0 mi ENE 17.3 mph - N/A   Haze
12:33 PM 46.4 °F 40.7 °F 37.4 °F 71% 30.10 in 4.0 mi East 12.7 mph - N/A   Haze
12:53 PM 46.0 °F 39.9 °F 36.0 °F 68% 30.11 in 4.0 mi ENE 13.8 mph - N/A   Haze
1:53 PM 44.1 °F 37.7 °F 36.0 °F 73% 30.12 in 4.0 mi ENE 12.7 mph - N/A   Haze
2:17 PM 44.6 °F 38.8 °F 35.6 °F 71% 30.10 in 4.0 mi East 11.5 mph - N/A   Haze
2:53 PM 43.0 °F 36.4 °F 35.1 °F 74% 30.12 in 4.0 mi ENE 12.7 mph - N/A   Haze
3:53 PM 42.1 °F 36.1 °F 35.1 °F 76% 30.16 in 4.0 mi NE 10.4 mph - N/A   Haze
4:49 PM 42.8 °F 38.0 °F 33.8 °F 70% 30.17 in 5.0 mi NE 8.1 mph - N/A   Haze
4:53 PM 42.1 °F 37.7 °F 34.0 °F 73% 30.19 in 5.0 mi NE 6.9 mph - N/A   Haze
5:53 PM 42.1 °F 36.1 °F 35.1 °F 76% 30.19 in 5.0 mi ENE 10.4 mph - N/A   Haze
6:53 PM 42.1 °F 37.7 °F 35.1 °F 76% 30.18 in 4.0 mi East 6.9 mph - N/A   Haze
7:51 PM 39.2 °F 33.0 °F 35.6 °F 87% 30.15 in 4.0 mi East 9.2 mph - N/A   Haze
7:53 PM 39.9 °F 33.9 °F 35.1 °F 83% 30.18 in 3.0 mi East 9.2 mph - N/A   Haze
8:53 PM 37.0 °F 33.3 °F 34.0 °F 89% 30.17 in 2.5 mi East 4.6 mph - N/A   Mostly Cloudy
9:18 PM 39.2 °F 35.9 °F 35.6 °F 87% 30.15 in 3.0 mi East 4.6 mph - N/A   Overcast
9:26 PM 39.2 °F 37.0 °F 35.6 °F 87% 30.16 in 2.5 mi ENE 3.5 mph - N/A   Overcast
9:42 PM 39.2 °F 35.9 °F 35.6 °F 87% 30.15 in 3.0 mi East 4.6 mph - N/A   Mostly Cloudy
9:53 PM 37.0 °F 33.3 °F 34.0 °F 89% 30.16 in 2.5 mi East 4.6 mph - N/A   Mostly Cloudy
10:01 PM 35.6 °F 31.7 °F 33.8 °F 93% 30.13 in 2.5 mi East 4.6 mph - N/A   Partly Cloudy
10:50 PM 35.6 °F 32.8 °F 33.8 °F 93% 30.15 in 1.5 mi ENE 3.5 mph - N/A   Clear
10:53 PM 36.0 °F 33.3 °F 33.1 °F 89% 30.17 in 1.2 mi East 3.5 mph - N/A   Clear
11:00 PM 35.6 °F 31.7 °F 33.8 °F 93% 30.14 in 1.2 mi ENE 4.6 mph - N/A   Scattered Clouds
11:15 PM 33.8 °F 29.6 °F 32.0 °F 93% 30.14 in 0.8 mi ENE 4.6 mph - N/A   Mist
11:35 PM 37.4 °F 34.9 °F 35.6 °F 93% 30.15 in 1.2 mi NE 3.5 mph - N/A   Partly Cloudy
11:51 PM 35.6 °F 31.7 °F 35.6 °F 100% 30.15 in 0.8 mi NE 4.6 mph - N/A   Mist
11:53 PM 34.0 °F 29.8 °F 33.1 °F 96% 30.17 in 0.2 mi NE 4.6 mph - N/A Fog Fog